Regional Weather Roundup
Issued by NWS Midland/Odessa, TX

Skip options and go directly to product.
Home | Oldest Version | Previous Version | Current Version | All | Text Only | Save Text | Print | Product List | Glossary Off

Skip product version selection by date and time.   

738
ASUS44 KMAF 042001
RWRMAF
MIDLAND AREA WEATHER ROUNDUP
NATIONAL WEATHER SERVICE MIDLAND TX
300 PM CDT MON MAY 04 2015

...IN SOUTHWEST TEXAS AND SOUTHEAST NEW MEXICO...

CITY           SKY/WX    TMP DP  RH WIND       PRES   REMARKS
ALPINE         PTSUNNY   78  55  44 S14G23    30.02F
ANDREWS        PTSUNNY   80  56  45 S21G31    29.95F
ARTESIA        PTSUNNY   75  55  50 SE9G16    29.93F
BIG SPRING     MOSUNNY   82  55  39 SE20      29.98F
CARLSBAD       PTSUNNY   82  54  37 SE21G28   29.90F
DRYDEN           N/A     85  64  49 E25G37    29.89F
FORT STOCKTON  PTSUNNY   78  60  53 SE23G36   29.92F
GUAD PASS      MOSUNNY   73  51  46 E35G43    29.97F
HOBBS          TSTM      72  57  60 SE21G30   29.96F
MARFA          PTSUNNY   75  54  46 SE17      29.99F
MIDLAND AIRPK  PTSUNNY   80  58  46 S18G24    29.96F
MIDLAND INTL   PTSUNNY   82  59  45 S25G31    29.95F
ODESSA         MOSUNNY   80  57  45 S20       29.95F
PECOS          MOSUNNY   82  57  42 E22G31    29.88F
PRESIDIO       FAIR      88  51  27 SE3       29.83F
SEMINOLE       PTSUNNY   80  54  40 SE18G25   29.96F
SNYDER         MOSUNNY   79  60  51 SE17      29.99F
WINK           MOSUNNY   83  57  41 SE24G36   29.90F
$$
...OTHER STATIONS IN TEXAS...

CITY           SKY/WX    TMP DP  RH WIND       PRES   REMARKS
ABILENE        MOSUNNY   80  60  50 SE17G28   30.01F
AMARILLO       MOSUNNY   78  52  40 SE23G30   29.98F
AUSTIN         PTSUNNY   83  63  50 SE14      30.02F
BROWNSVILLE    CLOUDY    84  69  60 SE13      29.98F
CORPUS CHRISTI PTSUNNY   81  67  62 SE22G29   30.02F
DALLAS FTW     PTSUNNY   79  60  52 SE16G25   30.05F
DEL RIO        CLOUDY    81  66  60 SE22G30   29.92F
EL PASO        PTSUNNY   82  49  31 VRB3      29.85F
HOUSTON INT    MOSUNNY   83  54  36 SE10G18   30.07F
LUBBOCK        PTSUNNY   79  56  45 SE22G31   29.97F
SAN ANGELO     MOSUNNY   84  61  45 SE18G28   29.96F
SAN ANTONIO    CLOUDY    81  65  58 SE15      30.03F
WACO           MOSUNNY   82  60  47 SE16G24   30.04F
WICHITA FALLS  NOT AVBL
$$
...OTHER LOCATIONS IN NEW MEXICO...

CITY           SKY/WX    TMP DP  RH WIND       PRES   REMARKS
ALAMAGORDO     MOSUNNY   79  43  27 S12G22    29.91F
ALBUQUERQUE    PTSUNNY   73  35  25 SE8       29.94F
CANNON AFB     PTSUNNY   73  54  49 VRB7      29.97F
CLOVIS         PTSUNNY   72  52  49 SE16G24   29.97F THUNDER
HOLLOMAN AFB   NOT AVBL
ROSWELL        PTSUNNY   79  48  33 VRB6      29.93F
RUIDOSO        CLOUDY    50  46  87 S13       30.15R
SANTA FE       PTSUNNY   64  38  38 SE15      30.03R
TRUTH OR CONSE MOSUNNY   77  38  24 SW10G18   29.91F
TUCUMCARI      CLOUDY    62  55  77 N8        29.99F
$$

USA.gov is the U.S. government's official web portal to all federal, state and local government web resources and services.